Location: ???????
(55.4362°N, 38.1183°E)
Time: 18:16:29
(UTC+00:00)

Cosmos 1455 - Pass Details

Date: 17 June 2021
Orbit: 496 x 522 km, 82.5° (Epoch: 29 July)

Event Time Altitude Azimuth Distance (km) Brightness Sun altitude
Rises 20:01:24 0° 350° (N) 2,659 7.9 -9.0°
Reaches altitude 10° 20:03:35 10° 354° (N) 1,763 6.4 -9.1°
Maximum altitude 20:07:24 59° 75° (ENE) 605 2.5 -9.3°
Enters shadow 20:10:43 13° 154° (SSE) 1,552 4.0 -9.4°
